Simultaneous Nadir Overpasses (SNOs) Predictions

Prediction of SNOs between AQUA and METOP-A Satellite Orbit:

Table of predicted SNOs for the next 14.0 days since TLE Epoch: 3/15/2019
Index Date (AQUA) Time (AQUA) Lat,Lon (AQUA) SZA (AQUA ) Date (METOP-A) Time (METOP-A) Lat,Lon (METOP-A) SZA (METOP-A ) Distance(km) Time Diff (sec)
1 03/18/2019 09:57:51 74.95, 22.26 76.10 03/18/2019 09:56:48 74.93, 22.21 76.10 2.44 63
2 03/18/2019 10:47:19 -75.03,-170.31 103.83 03/18/2019 10:47:28 -75.00,-170.27 103.86 3.42 9
3 03/18/2019 11:36:52 75.35, -3.53 76.52 03/18/2019 11:38:01 75.34, -1.98 76.42 43.47 69
4 03/21/2019 05:32:08 74.96, 88.67 74.99 03/21/2019 05:31:01 74.98, 88.74 75.02 2.81 67
5 03/21/2019 06:21:35 -74.99,-103.77 105.00 03/21/2019 06:21:42 -75.00,-103.86 104.98 3.22 7
6 03/21/2019 07:11:06 75.20, 63.30 75.24 03/21/2019 07:12:17 75.24, 64.13 75.21 23.95 71
7 03/24/2019 01:06:24 74.97, 155.06 73.89 03/24/2019 01:05:14 74.97, 155.13 73.90 1.79 70
8 03/24/2019 01:55:51 -75.00, -37.37 106.10 03/24/2019 01:55:55 -75.00, -37.46 106.10 2.42 4
9 03/24/2019 02:45:20 75.12, 129.96 74.02 03/24/2019 02:46:32 75.13, 130.24 74.01 8.33 72
10 03/26/2019 20:40:40 74.94,-138.43 72.74 03/26/2019 20:39:28 74.96,-138.49 72.78 2.81 72
11 03/26/2019 21:30:08 -75.02, 29.00 107.19 03/26/2019 21:30:09 -75.00, 28.94 107.21 3.18 1
12 03/26/2019 22:19:36 75.09,-163.53 72.87 03/26/2019 22:20:47 75.08,-163.51 72.85 1.48 71
13 03/29/2019 16:14:57 74.97, -72.07 71.66 03/29/2019 16:13:43 74.91, -72.24 71.62 8.76 74
14 03/29/2019 17:04:25 -75.05, 95.35 108.27 03/29/2019 17:04:22 -75.04, 95.47 108.28 3.64 3




NCC Satellite Simultaneous Nadir Overpasses (SNOs) Prediction Service
